This demonstration page uses our WeatherBlox Daily Observations layout. Learn more.

Left ArrowRight Arrow

Hourly Observations for July 26, 2018

Temp ( °F °C ) Dew Point ( °F °C ) Humidity (%) Winds ( mph kmh ) Pressure ( in mb ) Visibility ( mi km ) Precip ( " mm )
12:15 am 00:15 Mostly Cloudy 71 21.8 64 18 79 79 NE 7 11 30.06 1018 10 16 N/A
12:35 am 00:35 Partly Cloudy 71 21.4 65 18.1 82 82 ENE 5 7 30.06 1018 10 16 N/A
12:55 am 00:55 Mostly Cloudy 70 21.2 65 18.5 85 85 NE 5 7 30.09 1019 10 16 N/A
1:15 am 01:15 Cloudy 70 21.2 65 18.5 85 85 NE 5 7 30.09 1019 10 16 N/A
1:35 am 01:35 Cloudy 70 21.1 66 18.8 87 87 NE 3 6 30.09 1019 10 16 N/A
1:55 am 01:55 Cloudy 70 21 66 18.7 87 87 N N/A 30.09 1019 10 16 N/A
2:15 am 02:15 Cloudy 70 21 66 18.8 87 87 N N/A 30.12 1020 10 16 N/A
2:35 am 02:35 Cloudy 69 20.7 66 18.9 89 89 E 5 7 30.09 1019 10 16 N/A
2:55 am 02:55 Cloudy with Nearby Thunderstorms 69 20.5 66 18.8 90 90 N N/A 30.09 1019 10 16 N/A
3:15 am 03:15 Cloudy 68 20.2 65 18.6 91 91 E 5 7 30.09 1019 10 16 N/A
3:35 am 03:35 Partly Cloudy 68 20 65 18.4 91 91 E 5 7 30.09 1019 10 16 N/A
3:55 am 03:55 Clear 67 19.5 65 18.1 92 92 E 5 7 30.09 1019 10 16 N/A
4:15 am 04:15 Clear 66 19 64 17.7 92 92 ESE 3 6 30.09 1019 10 16 N/A
4:35 am 04:35 Clear 66 18.7 64 17.5 93 93 ENE 3 6 30.09 1019 10 16 N/A
4:55 am 04:55 Partly Cloudy 65 18.3 64 17.5 95 95 N N/A 30.09 1019 10 16 N/A
5:15 am 05:15 Clear with Mist and Fog 65 18.2 63 17.4 95 95 N N/A 30.09 1019 5 8 N/A
5:35 am 05:35 Partly Cloudy with Mist and Fog 64 17.6 62 16.8 95 95 N N/A 30.12 1020 5 8 N/A
5:55 am 05:55 Partly Cloudy with Mist and Fog 63 17.1 61 16.3 95 95 N 3 6 30.12 1020 5 8 N/A
6:15 am 06:15 Cloudy with Fog 62 16.7 61 15.9 95 95 N N/A 30.12 1020 1 1 N/A
6:35 am 06:35 Mostly Cloudy with Mist and Fog 63 17.1 62 16.4 96 96 N N/A 30.12 1020 3 5 N/A
6:55 am 06:55 Mostly Cloudy with Mist and Fog 62 16.8 61 16.1 96 96 NNW 3 6 30.15 1021 2 3 N/A
7:15 am 07:15 Mostly Cloudy with Mist and Fog 64 17.9 63 17.2 96 96 NW 3 6 30.15 1021 4 6 N/A
7:35 am 07:35 Mostly Cloudy with Mist and Fog 65 18.3 64 17.6 96 96 N N/A 30.12 1020 5 8 N/A
7:55 am 07:55 Partly Cloudy with Mist and Fog 66 18.8 65 18.1 96 96 N N/A 30.09 1019 5 8 N/A
8:15 am 08:15 Partly Cloudy 66 19.1 65 18.3 95 95 N N/A 30.09 1019 7 11 N/A
8:35 am 08:35 Partly Cloudy 68 19.8 65 18.5 92 92 N N/A 30.12 1020 10 16 N/A
8:55 am 08:55 Cloudy 70 21.1 65 18.3 84 84 N N/A 30.12 1020 10 16 N/A
9:15 am 09:15 Mostly Cloudy 71 21.8 62 16.7 73 73 SSE 3 6 30.09 1019 10 16 N/A
9:35 am 09:35 Partly Cloudy 73 22.8 59 14.8 61 61 SE 5 7 30.09 1019 10 16 N/A
9:55 am 09:55 Sunny 74 23.3 58 14.4 57 57 SE 5 7 30.09 1019 10 16 N/A
10:15 am 10:15 Sunny 75 23.7 58 14.5 56 56 E 3 6 30.09 1019 10 16 N/A
10:35 am 10:35 Sunny 75 23.9 58 14.2 55 55 E 6 9 30.09 1019 10 16 N/A
10:55 am 10:55 Sunny 76 24.3 58 14.4 54 54 ENE 5 7 30.09 1019 10 16 N/A
11:15 am 11:15 Sunny 76 24.5 57 14 52 52 E 5 7 30.09 1019 10 16 N/A
11:35 am 11:35 Sunny 77 25 55 12.8 47 47 E 5 7 30.09 1019 10 16 N/A
11:55 am 11:55 Sunny 78 25.5 55 13 46 46 E 5 7 30.06 1018 10 16 N/A
12:15 pm 12:15 Sunny 78 25.8 58 14.2 49 49 S 6 9 30.06 1018 10 16 N/A
12:35 pm 12:35 Sunny 78 25.6 57 14 49 49 N N/A 30.06 1018 10 16 N/A
12:55 pm 12:55 Sunny 80 26.5 58 14.5 48 48 SE 6 9 30.06 1018 7 11 N/A
1:15 pm 13:15 Sunny 80 26.4 57 14.1 47 47 N N/A 30.06 1018 10 16 N/A
1:35 pm 13:35 Sunny 80 26.8 58 14.3 46 46 N N/A 30.03 1017 10 16 N/A
1:55 pm 13:55 Sunny 80 26.8 57 13.9 45 45 N N/A 30.03 1017 10 16 N/A
2:15 pm 14:15 Sunny 81 27 57 14 45 45 N N/A 30.03 1017 10 16 N/A
2:35 pm 14:35 Sunny 81 27.4 59 14.8 46 46 SW 6 9 30.03 1017 10 16 N/A
2:55 pm 14:55 Sunny 82 27.9 59 14.9 45 45 SSW 3 6 30.03 1017 10 16 N/A
3:15 pm 15:15 Sunny 82 28 59 15.1 45 45 SW 5 7 30.00 1016 10 16 N/A
3:35 pm 15:35 Sunny 83 28.1 59 15.1 45 45 SE 5 7 30.00 1016 10 16 N/A
3:55 pm 15:55 Sunny 83 28.3 60 15.3 45 45 SE 8 13 29.97 1015 10 16 N/A
4:15 pm 16:15 Sunny 82 27.5 59 14.8 46 46 SE 6 9 30.00 1016 10 16 N/A
4:35 pm 16:35 Partly Cloudy 82 28 59 14.8 45 45 E 3 6 30.00 1016 10 16 N/A
4:55 pm 16:55 Partly Cloudy 82 28 60 15.6 47 47 ESE 3 6 30.00 1016 10 16 N/A
5:15 pm 17:15 Partly Cloudy 78 25.7 60 15.4 53 53 E 8 13 30.03 1017 10 16 N/A
5:35 pm 17:35 Mostly Cloudy 71 21.8 60 15.8 69 69 NE 15 24 30.06 1018 10 16 N/A
5:55 pm 17:55 Cloudy with Thunderstorms 68 19.9 63 17 83 83 E 10 17 30.09 1019 10 16 N/A
6:15 pm 18:15 Partly Cloudy with Light Rain 69 20.5 62 16.8 79 79 SE 13 20 30.06 1018 10 16 0.01 0.25
6:35 pm 18:35 Sunny 69 20.6 63 17.3 81 81 NE 5 7 30.06 1018 10 16 0.01 0.25
6:55 pm 18:55 Partly Cloudy 71 21.7 65 18.2 81 81 N 14 22 30.03 1017 10 16 0.01 0.25
7:15 pm 19:15 Mostly Cloudy 70 21.3 64 17.6 80 80 ENE 10 17 30.03 1017 10 16 N/A
7:35 pm 19:35 Partly Cloudy 71 21.6 64 17.5 78 78 ENE 5 7 30.03 1017 10 16 N/A
7:55 pm 19:55 Sunny 71 21.6 64 17.6 78 78 N N/A 30.03 1017 10 16 N/A
8:15 pm 20:15 Sunny 70 20.9 64 17.6 82 82 NE 3 6 30.06 1018 10 16 N/A
8:35 pm 20:35 Sunny 68 20.1 64 17.9 87 87 N N/A 30.06 1018 10 16 N/A
8:55 pm 20:55 Sunny 68 20 64 17.8 87 87 N N/A 30.09 1019 10 16 N/A
9:15 pm 21:15 Clear 68 20.2 64 17.5 85 85 N N/A 30.06 1018 10 16 N/A
9:35 pm 21:35 Clear 68 19.8 63 17.3 86 86 N N/A 30.09 1019 7 11 N/A
9:55 pm 21:55 Clear 66 19.1 63 17 88 88 N N/A 30.09 1019 10 16 N/A
10:15 pm 22:15 Clear 65 18.4 63 17 92 92 N N/A 30.09 1019 10 16 N/A
10:35 pm 22:35 Clear 64 17.8 62 16.8 94 94 N N/A 30.12 1020 10 16 N/A
10:55 pm 22:55 Clear 64 17.6 62 16.7 95 95 N N/A 30.15 1021 7 11 N/A
11:15 pm 23:15 Clear with Mist and Fog 63 17.3 62 16.4 94 94 N N/A 30.15 1021 3 4 N/A
11:35 pm 23:35 Clear with Mist and Fog 62 16.9 61 16.1 95 95 N N/A 30.15 1021 3 4 N/A
11:55 pm 23:55 Mostly Cloudy with Mist and Fog 62 16.7 61 15.9 95 95 NNE 5 7 30.12 1020 1 2 N/A

Powered by AerisWeather